Location: Invercargill
(46.4000°S, 168.3500°E)
Time: 18:49:56
(UTC+12:00)

Cosmos 2219 Rocket - Pass Details

Date: 14 May 2021
Orbit: 827 x 847 km, 71.0° (Epoch: 14 June)

Event Time Altitude Azimuth Distance (km) Brightness Sun altitude
Rises 17:44:28 0° 350° (N) 3,375 5.8 -3.8°
Reaches altitude 10° 17:46:56 10° 355° (N) 2,446 5.0 -4.2°
Maximum altitude 17:52:23 54° 70° (ENE) 1,018 2.4 -5.1°
Drops below altitude 10° 17:57:52 10° 145° (SE) 2,467 4.1 -6.0°
Sets 18:00:22 0° 149° (SSE) 3,406 4.9 -6.4°
